Regional Weather Roundup
Issued by NWS

Home | Current Version | Previous Version | Text Only | Print | Product List | Glossary Off
Versions: 1 2 3 4 5 6 7 8 9 10 11 12 13 14 15 16 17 18 19 20 21 22 23 24 25 26 27 28 29 30 31 32 33 34 35 36 37 38 39 40 41 42 43 44 45 46 47 48 49 50

000
ASUS43 KFSD 271802
RWRSD

WEATHER ROUNDUP FOR SOUTH DAKOTA
NATIONAL WEATHER SERVICE SIOUX FALLS SD
100 PM CDT WED JUL 27 2016

NOTE: "FAIR" INDICATES FEW OR NO CLOUDS BELOW 12,000 FEET WITH NO
SIGNIFICANT WEATHER AND/OR OBSTRUCTIONS TO VISIBILITY.


SDZ001>005-009-010-012>017-271900-
NORTHWEST AND NORTH CENTRAL SOUTH DAKOTA

CITY           SKY/WX    TMP DP  RH WIND       PRES   REMARKS
FAITH            N/A     76  60  57 NE16      30.10F
MOBRIDGE       MOSUNNY   79  61  53 N10G18    30.07S
$$

SDZ012>016-024>037-041>051-057-063-072>074-271900-
SOUTHWEST AND SOUTH CENTRAL SOUTH DAKOTA

CITY           SKY/WX    TMP DP  RH WIND       PRES   REMARKS
RAPID CTY ARPT CLOUDY    79  64  60 N7        30.13R
PIERRE         SUNNY     83  62  49 NE13G22   30.03F
CUSTER         CLOUDY    75  50  41 SW8       30.24R
ELLSWORTH AFB  CLOUDY    77  64  63 VRB5      30.13R
PHILIP           N/A    N/A N/A N/A MISG      30.05
PINE RIDGE     MOSUNNY   78  61  55 VRB5      30.13R
WINNER         FAIR      86  67  52 NE13      30.04F
$$

SDZ004>011-016>023-039-040-271900-
NORTHEAST SOUTH DAKOTA

CITY           SKY/WX    TMP DP  RH WIND       PRES   REMARKS
ABERDEEN       MOSUNNY   77  64  64 N13       30.07R
WATERTOWN      MOSUNNY   78  64  61 N15       30.04S
BROOKINGS      MOSUNNY   76  64  66 N9        30.03S
SISSETON         N/A     77  63  61 NE15      30.03S
$$

SDZ017-020-022-023-036>040-048>070-271900-
SOUTHEAST SOUTH DAKOTA

CITY           SKY/WX    TMP DP  RH WIND       PRES   REMARKS
SIOUX FALLS    PTSUNNY   81  67  62 N12       30.00F
HURON          SUNNY     79  65  62 N14       30.03F
CHAMBERLAIN    PTSUNNY   82  67  60 NE7       30.05R
MITCHELL       PTSUNNY   81  66  60 N14       30.02F
YANKTON        SUNNY     82  61  47 NW8       29.99F
$$

ABBREVIATIONS USED IN REMARKS
   TC - TEMPERATURE IN CELSIUS
  WCI - WIND CHILL INDEX
   HX - HEAT INDEX
  VSB - VISIBILITY





USA.gov is the U.S. government's official web portal to all federal, state and local government web resources and services.